User: anonymous   Login
Location: Pilipovskiye Korichintsy
(49.1833°N, 27.4667°E)
Time: 22:36:31
(UTC+00:00)
Language:

Cosmos 540 Rocket - Orbit

View from above orbital plane
View from above orbital plane
View from above satellite
View from above satellite

Ground track
Ground track

The orbit data is extracted from the following two-line orbital elements,

1  6324U 72104B   20270.11541280  .00000091  00000-0  34771-4 0  9998
2  6324  74.0778  47.5789 0009946 242.4258 117.5889 14.43500636508278
Epoch (UTC): 26 September 2020 02:46:11
Eccentricity: 0.0009946
inclination: 74.0778°
perigee height: 740 km
apogee height: 754 km
right ascension of ascending node: 47.5789°
argument of perigee: 242.4258°
revolutions per day: 14.43500636
mean anomaly at epoch: 117.5889°
orbit number at epoch: 50827

The dashed part of the orbit path shows where the satellite is in the earth's shadow,  

DLR